| time (UTC) | temp F | wind direction | speed knots | gust knots | rain 1hr in | rain 24hr in | rain mn in | humidity % | barometer mb |
| 20260906053525 | 80 | 83 | 3.5 | 4.3 | 0.00 | 0.00 | 0.00 | 64 | 1010.9 |
| 20260906053051 | 80 | 83 | 2.6 | 3.5 | 0.00 | 0.00 | 0.00 | 64 | 1010.9 |
| 20260906052524 | 80 | 82 | 2.6 | 3.5 | 0.00 | 0.00 | 0.00 | 64 | 1010.9 |
| 20260906052028 | 80 | 78 | 1.7 | 5.2 | 0.00 | 0.00 | 0.00 | 63 | 1011.0 |
| 20260906051545 | 80 | 88 | 1.7 | 5.2 | 0.00 | 0.00 | 0.00 | 63 | 1011.0 |
| 20260906051027 | 80 | 80 | 3.5 | 6.1 | 0.00 | 0.00 | 0.00 | 63 | 1010.9 |
| 20260906050523 | 80 | 84 | 3.5 | 6.1 | 0.00 | 0.00 | 0.00 | 63 | 1010.9 |
| 20260906050105 | 80 | 82 | 2.6 | 5.2 | 0.00 | 0.00 | 0.00 | 63 | 1011.0 |
| 20260906045526 | 80 | 84 | 1.7 | 3.5 | 0.00 | 0.00 | 0.00 | 63 | 1011.0 |
| 20260906045024 | 80 | 83 | 0.9 | 3.5 | 0.00 | 0.00 | 0.00 | 63 | 1011.1 |
| 20260906044542 | 80 | 82 | 0.9 | 3.5 | 0.00 | 0.00 | 0.00 | 63 | 1011.0 |
| 20260906044023 | 80 | 86 | 2.6 | 3.5 | 0.00 | 0.00 | 0.00 | 63 | 1011.0 |
| 20260906043524 | 80 | 87 | 1.7 | 5.2 | 0.00 | 0.00 | 0.00 | 63 | 1011.0 |
| 20260906043058 | 80 | 82 | 2.6 | 6.1 | 0.00 | 0.00 | 0.00 | 63 | 1011.0 |
| 20260906042525 | 80 | 81 | 2.6 | 6.1 | 0.00 | 0.00 | 0.00 | 63 | 1010.9 |
| 20260906042024 | 80 | 86 | 2.6 | 6.1 | 0.00 | 0.00 | 0.00 | 63 | 1011.0 |
| 20260906041544 | 80 | 90 | 2.6 | 5.2 | 0.00 | 0.00 | 0.00 | 64 | 1011.0 |
| 20260906041025 | 80 | 94 | 2.6 | 5.2 | 0.00 | 0.00 | 0.00 | 64 | 1011.0 |
| 20260906040524 | 81 | 84 | 1.7 | 3.5 | 0.00 | 0.00 | 0.00 | 63 | 1010.9 |
| 20260906040104 | 81 | 84 | 2.6 | 3.5 | 0.00 | 0.00 | 0.00 | 63 | 1011.0 |
| 20260906035524 | 81 | 94 | 2.6 | 3.5 | 0.00 | 0.00 | 0.00 | 63 | 1011.0 |
| 20260906035024 | 82 | 94 | 1.7 | 2.6 | 0.00 | 0.00 | 0.00 | 61 | 1010.9 |
| 20260906034542 | 82 | 94 | 1.7 | 2.6 | 0.00 | 0.00 | 0.00 | 61 | 1011.0 |
| 20260906034025 | 82 | 94 | 1.7 | 3.5 | 0.00 | 0.00 | 0.00 | 61 | 1010.9 |
| 20260906033524 | 83 | 94 | 1.7 | 3.5 | 0.00 | 0.00 | 0.00 | 60 | 1010.8 |
| 20260906033046 | 83 | 98 | 0.9 | 2.6 | 0.00 | 0.00 | 0.00 | 59 | 1010.8 |
| 20260906032523 | 83 | 85 | 0.9 | 3.5 | 0.00 | 0.00 | 0.00 | 59 | 1010.9 |
| 20260906032023 | 83 | 85 | 0.9 | 3.5 | 0.00 | 0.00 | 0.00 | 59 | 1011.0 |
| 20260906031542 | 83 | 82 | 2.6 | 3.5 | 0.00 | 0.00 | 0.00 | 59 | 1011.0 |
| 20260906031024 | 83 | 82 | 2.6 | 3.5 | 0.00 | 0.00 | 0.00 | 59 | 1010.9 |
| 20260906030525 | 84 | 79 | 1.7 | 4.3 | 0.00 | 0.00 | 0.00 | 59 | 1010.9 |
| 20260906030046 | 83 | 76 | 2.6 | 6.1 | 0.00 | 0.00 | 0.00 | 59 | 1010.8 |
| 20260906025524 | 83 | 82 | 2.6 | 6.1 | 0.00 | 0.00 | 0.00 | 59 | 1010.8 |
| 20260906025024 | 84 | 77 | 2.6 | 3.5 | 0.00 | 0.00 | 0.00 | 60 | 1010.7 |
| 20260906024544 | 84 | 92 | 1.7 | 3.5 | 0.00 | 0.00 | 0.00 | 60 | 1010.6 |
| 20260906024024 | 84 | 87 | 1.7 | 3.5 | 0.00 | 0.00 | 0.00 | 60 | 1010.5 |
| 20260906023524 | 83 | 113 | 1.7 | 2.6 | 0.00 | 0.00 | 0.00 | 60 | 1010.5 |
| 20260906023057 | 83 | 113 | 0.9 | 2.6 | 0.00 | 0.00 | 0.00 | 60 | 1010.4 |
| 20260906022525 | 83 | 113 | 0.9 | 1.7 | 0.00 | 0.00 | 0.00 | 59 | 1010.4 |
| 20260906022024 | 84 | 113 | 0.9 | 2.6 | 0.00 | 0.00 | 0.00 | 59 | 1010.3 |
| 20260906021547 | 84 | 113 | 0.9 | 2.6 | 0.00 | 0.00 | 0.00 | 59 | 1010.1 |
| 20260906021024 | 84 | 113 | 0.9 | 2.6 | 0.00 | 0.00 | 0.00 | 58 | 1010.1 |
| 20260906020524 | 85 | 113 | 0.9 | 2.6 | 0.00 | 0.00 | 0.00 | 57 | 1010.0 |
| 20260906020046 | 85 | 113 | 0.9 | 2.6 | 0.00 | 0.00 | 0.00 | 56 | 1009.9 |
| 20260906015523 | 85 | 113 | 0.9 | 2.6 | 0.00 | 0.00 | 0.00 | 56 | 1009.9 |
| 20260906015021 | 86 | 113 | 1.7 | 2.6 | 0.00 | 0.00 | 0.00 | 55 | 1009.9 |
| 20260906014555 | 86 | 113 | 0.9 | 2.6 | 0.00 | 0.00 | 0.00 | 54 | 1009.9 |
| 20260906014025 | 87 | 113 | 1.7 | 2.6 | 0.00 | 0.00 | 0.00 | 54 | 1009.7 |
| 20260906013524 | 87 | 109 | 1.7 | 2.6 | 0.00 | 0.00 | 0.00 | 53 | 1009.6 |
| 20260906013049 | 87 | 109 | 1.7 | 2.6 | 0.00 | 0.00 | 0.00 | 53 | 1009.5 |
| 20260906012527 | 88 | 109 | 0.9 | 1.7 | 0.00 | 0.00 | 0.00 | 52 | 1009.5 |
| 20260906012025 | 88 | 109 | 0.9 | 1.7 | 0.00 | 0.00 | 0.00 | 52 | 1009.5 |
| 20260906011553 | 89 | 109 | 0.9 | 1.7 | 0.00 | 0.00 | 0.00 | 51 | 1009.4 |
| 20260906011023 | 89 | 109 | 0.9 | 2.6 | 0.00 | 0.00 | 0.00 | 50 | 1009.3 |
| 20260906010528 | 89 | 109 | 0.9 | 3.5 | 0.00 | 0.00 | 0.00 | 49 | 1009.3 |
| 20260906010047 | 90 | 109 | 0.9 | 3.5 | 0.00 | 0.00 | 0.00 | 49 | 1009.2 |
| 20260906005528 | 90 | 109 | 1.7 | 5.2 | 0.00 | 0.00 | 0.00 | 48 | 1009.1 |
| 20260906005025 | 90 | 95 | 1.7 | 5.2 | 0.00 | 0.00 | 0.00 | 48 | 1009.1 |
| 20260906004544 | 91 | 98 | 2.6 | 5.2 | 0.00 | 0.00 | 0.00 | 47 | 1009.0 |
| 20260906004031 | 91 | 113 | 1.7 | 5.2 | 0.00 | 0.00 | 0.00 | 47 | 1009.0 |
| 20260906003530 | 92 | 130 | 1.7 | 5.2 | 0.00 | 0.00 | 0.00 | 46 | 1009.1 |
| 20260906003052 | 93 | 114 | 2.6 | 5.2 | 0.00 | 0.00 | 0.00 | 46 | 1009.2 |
| 20260906002524 | 93 | 116 | 2.6 | 6.1 | 0.00 | 0.00 | 0.00 | 45 | 1009.2 |
| 20260906002025 | 94 | 136 | 2.6 | 7.0 | 0.00 | 0.00 | 0.00 | 44 | 1009.1 |
| 20260906001545 | 95 | 127 | 3.5 | 7.0 | 0.00 | 0.00 | 0.00 | 43 | 1009.2 |
| 20260906001025 | 95 | 105 | 3.5 | 7.8 | 0.00 | 0.00 | 0.00 | 42 | 1009.2 |
| 20260906000525 | 96 | 118 | 3.5 | 7.8 | 0.00 | 0.00 | 0.00 | 40 | 1009.3 |
| 20260906000052 | 97 | 106 | 3.5 | 7.0 | 0.00 | 0.00 | 0.00 | 40 | 1009.3 |
| 20260905235527 | 98 | 106 | 5.2 | 7.0 | 0.00 | 0.00 | 0.00 | 39 | 1009.3 |
| 20260905235024 | 98 | 111 | 1.7 | 7.0 | 0.00 | 0.00 | 0.00 | 39 | 1009.3 |
| 20260905234553 | 98 | 121 | 1.7 | 9.6 | 0.00 | 0.00 | 0.00 | 38 | 1009.4 |
| 20260905234025 | 99 | 135 | 4.3 | 9.6 | 0.00 | 0.00 | 0.00 | 37 | 1009.4 |
| 20260905233524 | 99 | 143 | 3.5 | 12.2 | 0.00 | 0.00 | 0.00 | 37 | 1009.4 |
| 20260905233046 | 100 | 105 | 5.2 | 12.2 | 0.00 | 0.00 | 0.00 | 36 | 1009.3 |
| 20260905232525 | 100 | 129 | 7.8 | 12.2 | 0.00 | 0.00 | 0.00 | 36 | 1009.1 |
| 20260905232023 | 100 | 119 | 2.6 | 8.7 | 0.00 | 0.00 | 0.00 | 36 | 1009.2 |
| 20260905231546 | 100 | 110 | 6.1 | 8.7 | 0.00 | 0.00 | 0.00 | 36 | 1009.2 |
| 20260905231023 | 100 | 127 | 2.6 | 8.7 | 0.00 | 0.00 | 0.00 | 35 | 1009.2 |
| 20260905230524 | 101 | 126 | 5.2 | 11.3 | 0.00 | 0.00 | 0.00 | 34 | 1009.3 |
| 20260905230043 | 101 | 124 | 2.6 | 11.3 | 0.00 | 0.00 | 0.00 | 34 | 1009.2 |
| 20260905225526 | 102 | 122 | 7.8 | 11.3 | 0.00 | 0.00 | 0.00 | 34 | 1009.2 |
| 20260905225023 | 102 | 116 | 7.8 | 11.3 | 0.00 | 0.00 | 0.00 | 34 | 1009.3 |
| 20260905224559 | 101 | 123 | 1.7 | 10.4 | 0.00 | 0.00 | 0.00 | 34 | 1009.3 |
| 20260905224024 | 101 | 122 | 7.0 | 10.4 | 0.00 | 0.00 | 0.00 | 34 | 1009.3 |
| 20260905223529 | 102 | 132 | 4.3 | 13.0 | 0.00 | 0.00 | 0.00 | 34 | 1009.3 |
| 20260905223045 | 102 | 104 | 4.3 | 13.0 | 0.00 | 0.00 | 0.00 | 33 | 1009.3 |
| 20260905222524 | 102 | 127 | 7.8 | 13.0 | 0.00 | 0.00 | 0.00 | 33 | 1009.2 |
| 20260905222023 | 102 | 105 | 4.3 | 10.4 | 0.00 | 0.00 | 0.00 | 32 | 1009.2 |
| 20260905221544 | 102 | 157 | 5.2 | 14.8 | 0.00 | 0.00 | 0.00 | 32 | 1009.2 |
| 20260905221023 | 102 | 108 | 9.6 | 14.8 | 0.00 | 0.00 | 0.00 | 32 | 1009.2 |
| 20260905220525 | 102 | 129 | 7.0 | 13.0 | 0.00 | 0.00 | 0.00 | 33 | 1009.2 |
| 20260905220046 | 102 | 104 | 8.7 | 13.9 | 0.00 | 0.00 | 0.00 | 32 | 1009.2 |
| 20260905215526 | 102 | 138 | 5.2 | 13.9 | 0.00 | 0.00 | 0.00 | 33 | 1009.2 |
| 20260905215027 | 103 | 105 | 8.7 | 13.9 | 0.00 | 0.00 | 0.00 | 33 | 1009.3 |
| 20260905214546 | 102 | 121 | 4.3 | 13.9 | 0.00 | 0.00 | 0.00 | 34 | 1009.3 |
| 20260905214025 | 102 | 105 | 7.0 | 14.8 | 0.00 | 0.00 | 0.00 | 33 | 1009.3 |
| 20260905213524 | 103 | 92 | 7.0 | 14.8 | 0.00 | 0.00 | 0.00 | 33 | 1009.2 |
| 20260905213044 | 104 | 90 | 9.6 | 15.6 | 0.00 | 0.00 | 0.00 | 33 | 1009.3 |
| 20260905212524 | 103 | 128 | 6.1 | 15.6 | 0.00 | 0.00 | 0.00 | 33 | 1009.3 |
| 20260905212027 | 103 | 129 | 7.0 | 13.0 | 0.00 | 0.00 | 0.00 | 33 | 1009.4 |
| 20260905211546 | 103 | 140 | 6.1 | 10.4 | 0.00 | 0.00 | 0.00 | 31 | 1009.4 |
| 20260905211024 | 103 | 161 | 5.2 | 14.8 | 0.00 | 0.00 | 0.00 | 32 | 1009.6 |
| 20260905210523 | 103 | 101 | 7.0 | 14.8 | 0.00 | 0.00 | 0.00 | 33 | 1009.7 |
| 20260905210044 | 102 | 119 | 7.0 | 14.8 | 0.00 | 0.00 | 0.00 | 34 | 1009.7 |
| 20260905205524 | 102 | 94 | 2.6 | 11.3 | 0.00 | 0.00 | 0.00 | 34 | 1009.7 |
| 20260905205024 | 103 | 107 | 4.3 | 11.3 | 0.00 | 0.00 | 0.00 | 34 | 1009.9 |
| 20260905204545 | 102 | 119 | 5.2 | 13.0 | 0.00 | 0.00 | 0.00 | 35 | 1010.0 |
| 20260905204023 | 103 | 148 | 7.8 | 13.0 | 0.00 | 0.00 | 0.00 | 34 | 1010.1 |
| 20260905203526 | 103 | 156 | 7.0 | 12.2 | 0.00 | 0.00 | 0.00 | 33 | 1010.1 |
| 20260905203047 | 103 | 146 | 4.3 | 10.4 | 0.00 | 0.00 | 0.00 | 32 | 1010.2 |
| 20260905202526 | 103 | 94 | 3.5 | 12.2 | 0.00 | 0.00 | 0.00 | 32 | 1010.2 |
| 20260905202023 | 103 | 140 | 6.1 | 12.2 | 0.00 | 0.00 | 0.00 | 33 | 1010.4 |
| 20260905201547 | 103 | 136 | 7.0 | 14.8 | 0.00 | 0.00 | 0.00 | 34 | 1010.4 |
| 20260905201028 | 103 | 155 | 6.1 | 14.8 | 0.00 | 0.00 | 0.00 | 33 | 1010.4 |
| 20260905200524 | 102 | 133 | 7.0 | 13.0 | 0.00 | 0.00 | 0.00 | 34 | 1010.6 |
| 20260905200053 | 101 | 140 | 2.6 | 15.6 | 0.00 | 0.00 | 0.00 | 35 | 1010.7 |
| 20260905195531 | 102 | 157 | 4.3 | 15.6 | 0.00 | 0.00 | 0.00 | 35 | 1010.6 |
| 20260905195027 | 102 | 146 | 6.1 | 13.0 | 0.00 | 0.00 | 0.00 | 34 | 1010.6 |
| 20260905194545 | 102 | 111 | 5.2 | 13.0 | 0.00 | 0.00 | 0.00 | 35 | 1010.7 |
| 20260905194024 | 102 | 121 | 4.3 | 14.8 | 0.00 | 0.00 | 0.00 | 35 | 1010.9 |
| 20260905193525 | 102 | 124 | 6.1 | 15.6 | 0.00 | 0.00 | 0.00 | 35 | 1010.9 |
| 20260905193051 | 102 | 113 | 6.1 | 15.6 | 0.00 | 0.00 | 0.00 | 33 | 1011.0 |
| 20260905192525 | 102 | 96 | 7.0 | 12.2 | 0.00 | 0.00 | 0.00 | 36 | 1011.0 |
| 20260905192029 | 101 | 90 | 7.0 | 12.2 | 0.00 | 0.00 | 0.00 | 37 | 1011.1 |
| 20260905191546 | 100 | 87 | 5.2 | 12.2 | 0.00 | 0.00 | 0.00 | 38 | 1011.1 |
| 20260905191026 | 100 | 101 | 3.5 | 14.8 | 0.00 | 0.00 | 0.00 | 37 | 1011.1 |
| 20260905190524 | 100 | 88 | 8.7 | 14.8 | 0.00 | 0.00 | 0.00 | 37 | 1011.3 |
| 20260905190052 | 100 | 111 | 4.3 | 11.3 | 0.00 | 0.00 | 0.00 | 36 | 1011.3 |
| 20260905185523 | 100 | 26 | 1.7 | 11.3 | 0.00 | 0.00 | 0.00 | 37 | 1011.3 |
| 20260905185026 | 100 | 92 | 5.2 | 11.3 | 0.00 | 0.00 | 0.00 | 37 | 1011.4 |
| 20260905184600 | 101 | 76 | 2.6 | 13.9 | 0.00 | 0.00 | 0.00 | 35 | 1011.5 |
| 20260905184025 | 102 | 101 | 6.1 | 13.9 | 0.00 | 0.00 | 0.00 | 35 | 1011.6 |
| 20260905183527 | 100 | 105 | 7.8 | 13.9 | 0.00 | 0.00 | 0.00 | 37 | 1011.6 |
| 20260905183051 | 100 | 132 | 3.5 | 8.7 | 0.00 | 0.00 | 0.00 | 38 | 1011.7 |
| 20260905182524 | 100 | 85 | 4.3 | 13.0 | 0.00 | 0.00 | 0.00 | 36 | 1011.9 |
| 20260905182025 | 101 | 117 | 8.7 | 13.0 | 0.00 | 0.00 | 0.00 | 37 | 1011.9 |
| 20260905181545 | 101 | 87 | 7.8 | 12.2 | 0.00 | 0.00 | 0.00 | 38 | 1011.8 |
| 20260905181023 | 100 | 105 | 3.5 | 15.6 | 0.00 | 0.00 | 0.00 | 38 | 1011.9 |
| 20260905180524 | 100 | 98 | 7.0 | 15.6 | 0.00 | 0.00 | 0.00 | 38 | 1011.9 |
| 20260905180042 | 99 | 92 | 6.1 | 12.2 | 0.00 | 0.00 | 0.00 | 40 | 1011.9 |
| 20260905175528 | 99 | 0 | 2.6 | 12.2 | 0.00 | 0.00 | 0.00 | 40 | 1012.0 |
| 20260905175022 | 100 | 122 | 5.2 | 12.2 | 0.00 | 0.00 | 0.00 | 40 | 1012.1 |
| 20260905174547 | 99 | 92 | 5.2 | 11.3 | 0.00 | 0.00 | 0.00 | 40 | 1012.1 |
| 20260905174024 | 100 | 166 | 6.1 | 11.3 | 0.00 | 0.00 | 0.00 | 39 | 1012.1 |
| 20260905173524 | 100 | 151 | 7.0 | 11.3 | 0.00 | 0.00 | 0.00 | 39 | 1012.1 |
| 20260905173044 | 99 | 158 | 4.3 | 13.9 | 0.00 | 0.00 | 0.00 | 40 | 1012.3 |
| 20260905172524 | 100 | 103 | 8.7 | 13.9 | 0.00 | 0.00 | 0.00 | 39 | 1012.3 |
| 20260905172027 | 99 | 122 | 6.1 | 13.0 | 0.00 | 0.00 | 0.00 | 40 | 1012.3 |
| 20260905171544 | 99 | 106 | 8.7 | 13.0 | 0.00 | 0.00 | 0.00 | 41 | 1012.3 |
| 20260905171024 | 98 | 173 | 5.2 | 10.4 | 0.00 | 0.00 | 0.00 | 42 | 1012.3 |
| 20260905170521 | 99 | 141 | 5.2 | 13.9 | 0.00 | 0.00 | 0.00 | 42 | 1012.4 |
| 20260905170046 | 99 | 101 | 7.8 | 14.8 | 0.00 | 0.00 | 0.00 | 42 | 1012.5 |
| 20260905165524 | 98 | 122 | 7.0 | 14.8 | 0.00 | 0.00 | 0.00 | 43 | 1012.4 |
| 20260905165024 | 98 | 114 | 7.0 | 14.8 | 0.00 | 0.00 | 0.00 | 43 | 1012.5 |
| 20260905164545 | 98 | 109 | 7.8 | 13.0 | 0.00 | 0.00 | 0.00 | 43 | 1012.6 |
| 20260905164024 | 97 | 155 | 6.1 | 13.9 | 0.00 | 0.00 | 0.00 | 44 | 1012.6 |
| 20260905163526 | 97 | 156 | 5.2 | 13.9 | 0.00 | 0.00 | 0.00 | 44 | 1012.5 |
| 20260905163045 | 97 | 157 | 5.2 | 11.3 | 0.00 | 0.00 | 0.00 | 45 | 1012.5 |
| 20260905162527 | 97 | 150 | 6.1 | 10.4 | 0.00 | 0.00 | 0.00 | 45 | 1012.5 |
| 20260905162025 | 96 | 113 | 5.2 | 13.0 | 0.00 | 0.00 | 0.00 | 45 | 1012.5 |
| 20260905161542 | 97 | 167 | 5.2 | 13.0 | 0.00 | 0.00 | 0.00 | 45 | 1012.6 |
| 20260905161024 | 97 | 134 | 4.3 | 12.2 | 0.00 | 0.00 | 0.00 | 45 | 1012.6 |
| 20260905160525 | 97 | 135 | 3.5 | 12.2 | 0.00 | 0.00 | 0.00 | 45 | 1012.6 |
| 20260905160045 | 97 | 102 | 5.2 | 12.2 | 0.00 | 0.00 | 0.00 | 45 | 1012.4 |
| 20260905155526 | 96 | 136 | 7.0 | 12.2 | 0.00 | 0.00 | 0.00 | 46 | 1012.3 |
| 20260905155023 | 96 | 179 | 5.2 | 11.3 | 0.00 | 0.00 | 0.00 | 46 | 1012.4 |
| 20260905154544 | 96 | 121 | 7.0 | 13.0 | 0.00 | 0.00 | 0.00 | 46 | 1012.4 |
| 20260905154024 | 96 | 169 | 7.0 | 13.0 | 0.00 | 0.00 | 0.00 | 47 | 1012.4 |
| 20260905153525 | 95 | 121 | 7.0 | 12.2 | 0.00 | 0.00 | 0.00 | 47 | 1012.3 |
| 20260905153055 | 94 | 108 | 7.0 | 11.3 | 0.00 | 0.00 | 0.00 | 48 | 1012.3 |
| 20260905152525 | 94 | 105 | 7.0 | 13.0 | 0.00 | 0.00 | 0.00 | 49 | 1012.3 |
| 20260905152024 | 93 | 126 | 5.2 | 13.0 | 0.00 | 0.00 | 0.00 | 50 | 1012.3 |
| 20260905151550 | 93 | 155 | 7.0 | 13.0 | 0.00 | 0.00 | 0.00 | 50 | 1012.3 |
| 20260905151026 | 93 | 123 | 7.8 | 11.3 | 0.00 | 0.00 | 0.00 | 50 | 1012.3 |
| 20260905150524 | 92 | 138 | 7.8 | 11.3 | 0.00 | 0.00 | 0.00 | 51 | 1012.1 |
| 20260905150046 | 92 | 147 | 6.1 | 11.3 | 0.00 | 0.00 | 0.00 | 52 | 1012.2 |
| 20260905145525 | 91 | 133 | 6.1 | 11.3 | 0.00 | 0.00 | 0.00 | 52 | 1012.1 |
| 20260905145024 | 91 | 122 | 6.1 | 10.4 | 0.00 | 0.00 | 0.00 | 54 | 1011.9 |
| 20260905144548 | 90 | 135 | 5.2 | 9.6 | 0.00 | 0.00 | 0.00 | 56 | 1011.9 |
| 20260905144023 | 89 | 138 | 3.5 | 10.4 | 0.00 | 0.00 | 0.00 | 57 | 1011.7 |
| 20260905143525 | 89 | 150 | 4.3 | 10.4 | 0.00 | 0.00 | 0.00 | 58 | 1011.7 |
| 20260905143045 | 88 | 126 | 5.2 | 9.6 | 0.00 | 0.00 | 0.00 | 59 | 1011.7 |
| 20260905142528 | 87 | 133 | 7.0 | 9.6 | 0.00 | 0.00 | 0.00 | 60 | 1011.7 |
| 20260905142026 | 87 | 97 | 5.2 | 7.8 | 0.00 | 0.00 | 0.00 | 61 | 1011.6 |
| 20260905141554 | 86 | 126 | 4.3 | 7.8 | 0.00 | 0.00 | 0.00 | 63 | 1011.6 |
| 20260905141023 | 85 | 128 | 2.6 | 7.0 | 0.00 | 0.00 | 0.00 | 64 | 1011.7 |
| 20260905140524 | 84 | 112 | 3.5 | 7.0 | 0.00 | 0.00 | 0.00 | 64 | 1011.6 |
| 20260905140044 | 84 | 117 | 3.5 | 7.0 | 0.00 | 0.00 | 0.00 | 65 | 1011.7 |
| 20260905135525 | 83 | 115 | 3.5 | 7.0 | 0.00 | 0.00 | 0.00 | 67 | 1011.7 |
| 20260905135023 | 82 | 117 | 5.2 | 7.0 | 0.00 | 0.00 | 0.00 | 69 | 1011.7 |
| 20260905134544 | 81 | 140 | 3.5 | 7.0 | 0.00 | 0.00 | 0.00 | 70 | 1011.8 |
| 20260905134026 | 81 | 113 | 3.5 | 7.0 | 0.00 | 0.00 | 0.00 | 71 | 1011.7 |
| 20260905133525 | 80 | 129 | 2.6 | 7.0 | 0.00 | 0.00 | 0.00 | 72 | 1011.5 |
| 20260905133046 | 79 | 106 | 3.5 | 7.8 | 0.00 | 0.00 | 0.00 | 74 | 1011.5 |
| 20260905132525 | 78 | 107 | 5.2 | 7.8 | 0.00 | 0.00 | 0.00 | 75 | 1011.5 |
| 20260905132024 | 77 | 115 | 4.3 | 7.0 | 0.00 | 0.00 | 0.00 | 77 | 1011.5 |
| 20260905131558 | 77 | 112 | 3.5 | 7.0 | 0.00 | 0.00 | 0.00 | 78 | 1011.4 |
| 20260905131024 | 76 | 120 | 3.5 | 6.1 | 0.00 | 0.00 | 0.00 | 80 | 1011.4 |
| 20260905130523 | 75 | 115 | 3.5 | 6.1 | 0.00 | 0.00 | 0.00 | 80 | 1011.3 |
| 20260905130048 | 75 | 96 | 3.5 | 6.1 | 0.00 | 0.00 | 0.00 | 81 | 1011.2 |
| 20260905125526 | 74 | 92 | 3.5 | 6.1 | 0.00 | 0.00 | 0.00 | 82 | 1011.2 |
| 20260905125028 | 74 | 106 | 2.6 | 6.1 | 0.00 | 0.00 | 0.00 | 83 | 1011.2 |
| 20260905124547 | 73 | 96 | 1.7 | 5.2 | 0.00 | 0.00 | 0.00 | 84 | 1011.2 |
| 20260905124028 | 73 | 105 | 1.7 | 3.5 | 0.00 | 0.00 | 0.00 | 84 | 1011.2 |
| 20260905123524 | 73 | 111 | 1.7 | 3.5 | 0.00 | 0.00 | 0.00 | 83 | 1011.2 |
| 20260905123045 | 73 | 109 | 1.7 | 3.5 | 0.00 | 0.00 | 0.00 | 83 | 1011.2 |
| 20260905122525 | 73 | 113 | 2.6 | 3.5 | 0.00 | 0.00 | 0.00 | 83 | 1011.1 |
| 20260905122024 | 73 | 107 | 2.6 | 3.5 | 0.00 | 0.00 | 0.00 | 83 | 1010.9 |
| 20260905121544 | 73 | 115 | 1.7 | 3.5 | 0.00 | 0.00 | 0.00 | 82 | 1011.0 |
| 20260905121024 | 73 | 116 | 1.7 | 3.5 | 0.00 | 0.00 | 0.00 | 82 | 1010.9 |
| 20260905120527 | 73 | 113 | 1.7 | 3.5 | 0.00 | 0.00 | 0.00 | 82 | 1011.0 |
| 20260905120123 | 73 | 101 | 1.7 | 3.5 | 0.00 | 0.00 | 0.00 | 81 | 1010.8 |
| 20260905115528 | 73 | 109 | 1.7 | 3.5 | 0.00 | 0.00 | 0.00 | 81 | 1010.7 |
| 20260905115025 | 73 | 111 | 1.7 | 3.5 | 0.00 | 0.00 | 0.00 | 81 | 1010.7 |
| 20260905114546 | 73 | 103 | 1.7 | 3.5 | 0.00 | 0.00 | 0.00 | 80 | 1010.6 |
| 20260905114024 | 73 | 103 | 1.7 | 3.5 | 0.00 | 0.00 | 0.00 | 81 | 1010.6 |
| 20260905113524 | 73 | 101 | 2.6 | 3.5 | 0.00 | 0.00 | 0.00 | 80 | 1010.6 |
| 20260905113045 | 74 | 109 | 1.7 | 3.5 | 0.00 | 0.00 | 0.00 | 81 | 1010.6 |
| 20260905112524 | 74 | 103 | 1.7 | 3.5 | 0.00 | 0.00 | 0.00 | 81 | 1010.7 |
| 20260905112026 | 74 | 103 | 1.7 | 3.5 | 0.00 | 0.00 | 0.00 | 81 | 1010.7 |
| 20260905111602 | 74 | 103 | 1.7 | 3.5 | 0.00 | 0.00 | 0.00 | 81 | 1010.6 |
| 20260905111025 | 74 | 93 | 2.6 | 3.5 | 0.00 | 0.00 | 0.00 | 81 | 1010.6 |
| 20260905110524 | 74 | 96 | 1.7 | 3.5 | 0.00 | 0.00 | 0.00 | 80 | 1010.6 |
| 20260905110051 | 74 | 104 | 2.6 | 3.5 | 0.00 | 0.00 | 0.00 | 80 | 1010.6 |
| 20260905105524 | 74 | 117 | 1.7 | 3.5 | 0.00 | 0.00 | 0.00 | 80 | 1010.6 |
| 20260905105023 | 74 | 117 | 1.7 | 3.5 | 0.00 | 0.00 | 0.00 | 79 | 1010.6 |
| 20260905104545 | 74 | 117 | 1.7 | 2.6 | 0.00 | 0.00 | 0.00 | 79 | 1010.6 |
| 20260905104024 | 75 | 117 | 1.7 | 3.5 | 0.00 | 0.00 | 0.00 | 78 | 1010.7 |
| 20260905103527 | 75 | 117 | 1.7 | 3.5 | 0.00 | 0.00 | 0.00 | 77 | 1010.6 |
| 20260905103047 | 75 | 117 | 1.7 | 3.5 | 0.00 | 0.00 | 0.00 | 77 | 1010.6 |
| 20260905102525 | 75 | 113 | 1.7 | 2.6 | 0.00 | 0.00 | 0.00 | 77 | 1010.7 |
| 20260905102024 | 75 | 113 | 1.7 | 2.6 | 0.00 | 0.00 | 0.00 | 77 | 1010.9 |
| 20260905101548 | 75 | 100 | 1.7 | 3.5 | 0.00 | 0.00 | 0.00 | 77 | 1010.9 |
| 20260905101024 | 75 | 100 | 1.7 | 3.5 | 0.00 | 0.00 | 0.00 | 78 | 1010.7 |
| 20260905100529 | 75 | 99 | 1.7 | 3.5 | 0.00 | 0.00 | 0.00 | 77 | 1010.8 |
| 20260905100046 | 75 | 106 | 1.7 | 3.5 | 0.00 | 0.00 | 0.00 | 77 | 1010.9 |
| 20260905095524 | 75 | 106 | 1.7 | 3.5 | 0.00 | 0.00 | 0.00 | 77 | 1010.9 |
| 20260905095024 | 75 | 106 | 1.7 | 3.5 | 0.00 | 0.00 | 0.00 | 77 | 1010.9 |
| 20260905094546 | 76 | 107 | 1.7 | 3.5 | 0.00 | 0.00 | 0.00 | 77 | 1010.9 |
| 20260905094027 | 76 | 94 | 1.7 | 3.5 | 0.00 | 0.00 | 0.00 | 76 | 1011.0 |
| 20260905093525 | 76 | 106 | 1.7 | 2.6 | 0.00 | 0.00 | 0.00 | 75 | 1011.0 |
| 20260905093044 | 76 | 106 | 0.9 | 2.6 | 0.00 | 0.00 | 0.00 | 75 | 1011.1 |
| 20260905092525 | 76 | 106 | 1.7 | 2.6 | 0.00 | 0.00 | 0.00 | 75 | 1011.0 |
| 20260905092028 | 76 | 106 | 1.7 | 3.5 | 0.00 | 0.00 | 0.00 | 75 | 1011.0 |
| 20260905091546 | 76 | 103 | 1.7 | 3.5 | 0.00 | 0.00 | 0.00 | 75 | 1011.1 |
| 20260905091025 | 77 | 105 | 1.7 | 3.5 | 0.00 | 0.00 | 0.00 | 75 | 1011.1 |
| 20260905090529 | 77 | 105 | 1.7 | 2.6 | 0.00 | 0.00 | 0.00 | 75 | 1011.1 |
| 20260905090045 | 77 | 105 | 1.7 | 2.6 | 0.00 | 0.00 | 0.00 | 75 | 1011.0 |
| 20260905085525 | 77 | 105 | 1.7 | 2.6 | 0.00 | 0.00 | 0.00 | 74 | 1011.0 |
| 20260905085024 | 77 | 105 | 0.9 | 1.7 | 0.00 | 0.00 | 0.00 | 74 | 1011.0 |
| 20260905084544 | 77 | 105 | 0.9 | 2.6 | 0.00 | 0.00 | 0.00 | 74 | 1011.0 |
| 20260905084024 | 77 | 105 | 0.9 | 2.6 | 0.00 | 0.00 | 0.00 | 74 | 1011.0 |
| 20260905083527 | 77 | 105 | 1.7 | 2.6 | 0.00 | 0.00 | 0.00 | 74 | 1011.0 |
| 20260905083042 | 77 | 106 | 1.7 | 2.6 | 0.00 | 0.00 | 0.00 | 73 | 1011.0 |
| 20260905082525 | 77 | 119 | 1.7 | 2.6 | 0.00 | 0.00 | 0.00 | 73 | 1010.8 |
| 20260905082027 | 77 | 119 | 1.7 | 2.6 | 0.00 | 0.00 | 0.00 | 73 | 1010.9 |
| 20260905081546 | 78 | 119 | 1.7 | 3.5 | 0.00 | 0.00 | 0.00 | 72 | 1010.9 |
| 20260905081025 | 78 | 119 | 1.7 | 5.2 | 0.00 | 0.00 | 0.00 | 72 | 1010.9 |
| 20260905080525 | 78 | 128 | 1.7 | 5.2 | 0.00 | 0.00 | 0.00 | 72 | 1010.9 |
| 20260905080046 | 78 | 121 | 1.7 | 3.5 | 0.00 | 0.00 | 0.00 | 71 | 1011.0 |
| 20260905075523 | 78 | 121 | 1.7 | 3.5 | 0.00 | 0.00 | 0.00 | 71 | 1010.9 |
| 20260905075023 | 78 | 117 | 2.6 | 3.5 | 0.00 | 0.00 | 0.00 | 71 | 1010.9 |
| 20260905074551 | 78 | 119 | 1.7 | 3.5 | 0.00 | 0.00 | 0.00 | 70 | 1011.0 |
| 20260905074023 | 79 | 106 | 1.7 | 3.5 | 0.00 | 0.00 | 0.00 | 70 | 1010.8 |
| 20260905073526 | 79 | 111 | 1.7 | 3.5 | 0.00 | 0.00 | 0.00 | 70 | 1010.8 |
| 20260905073059 | 79 | 114 | 1.7 | 5.2 | 0.00 | 0.00 | 0.00 | 69 | 1010.8 |
| 20260905072524 | 79 | 120 | 2.6 | 5.2 | 0.00 | 0.00 | 0.00 | 70 | 1010.8 |
| 20260905072023 | 79 | 111 | 3.5 | 5.2 | 0.00 | 0.00 | 0.00 | 70 | 1010.7 |
| 20260905071547 | 79 | 115 | 2.6 | 6.1 | 0.00 | 0.00 | 0.00 | 69 | 1010.7 |
| 20260905071023 | 79 | 105 | 3.5 | 6.1 | 0.00 | 0.00 | 0.00 | 69 | 1010.6 |
| 20260905070524 | 79 | 117 | 3.5 | 6.1 | 0.00 | 0.00 | 0.00 | 69 | 1010.6 |
| 20260905070045 | 79 | 101 | 3.5 | 7.0 | 0.00 | 0.00 | 0.00 | 69 | 1010.7 |
| 20260905065524 | 80 | 115 | 4.3 | 7.0 | 0.00 | 0.00 | 0.00 | 69 | 1010.6 |
| 20260905065027 | 79 | 110 | 4.3 | 7.0 | 0.00 | 0.00 | 0.00 | 69 | 1010.6 |
| 20260905064543 | 80 | 105 | 4.3 | 7.0 | 0.00 | 0.00 | 0.00 | 69 | 1010.5 |
| 20260905064024 | 80 | 101 | 4.3 | 7.8 | 0.00 | 0.00 | 0.00 | 69 | 1010.5 |
| 20260905063525 | 80 | 113 | 4.3 | 7.8 | 0.00 | 0.00 | 0.00 | 69 | 1010.6 |
| 20260905063047 | 80 | 94 | 5.2 | 8.7 | 0.00 | 0.00 | 0.00 | 69 | 1010.4 |
| 20260905062528 | 80 | 117 | 5.2 | 8.7 | 0.00 | 0.00 | 0.00 | 69 | 1010.4 |
| 20260905062024 | 80 | 109 | 5.2 | 7.8 | 0.00 | 0.00 | 0.00 | 69 | 1010.3 |
| 20260905061546 | 80 | 114 | 5.2 | 7.8 | 0.00 | 0.00 | 0.00 | 69 | 1010.3 |
| 20260905061024 | 80 | 112 | 5.2 | 7.8 | 0.00 | 0.00 | 0.00 | 69 | 1010.4 |
| 20260905060524 | 80 | 105 | 5.2 | 7.8 | 0.00 | 0.00 | 0.00 | 69 | 1010.3 |
| 20260905060045 | 80 | 103 | 5.2 | 7.8 | 0.00 | 0.00 | 0.00 | 69 | 1010.2 |
| 20260905055523 | 80 | 94 | 5.2 | 7.8 | 0.00 | 0.00 | 0.00 | 69 | 1010.2 |
| 20260905055023 | 80 | 92 | 5.2 | 7.0 | 0.00 | 0.00 | 0.00 | 69 | 1010.2 |
| 20260905054547 | 81 | 97 | 4.3 | 7.0 | 0.00 | 0.00 | 0.00 | 69 | 1010.3 |
| 20260905054024 | 81 | 93 | 5.2 | 7.8 | 0.00 | 0.00 | 0.00 | 68 | 1010.3 |